Погода в Усуглях

Россия / Забайкальский край     52°39′08″N   115°15′24″E
темп.,
°C
ветер,
м/с
пор.,
м/с
влажн.,
%
обл.,
%
осадки,
мм/ч
давл.,
гПа
погр.,
м
16 мая, вс
вс1600:00+8зсз513370 0.0 1007552
03:00+4з310564 0.0 1008409
06:00+4з411495 0.0 1007515
09:00+10зсз694092 0.0 1004922
12:00+15з6103783 0.0 10022079
15:00+15з81342100 0.0 10012126
18:00+16з6123472 0.0 9992506
21:00+11зсз6115110 0.0 10021117
17 мая, пн
пн1700:00+5ссз3560100 0.0 1006116
03:00+2зсз224894 0.0 100815
06:00+2сз1150100 0.0 100710
09:00+7ю2540100 0.0 1004742
12:00+10зюз3543100 0.1 10011711
15:00+4ююв1193100 4.3 1001517
18:00+6з247414 0.1 1000688
21:00+6сз41169100 0.1 1000649
18 мая, вт
вт1800:00+1зсз23572 0.0 100540
03:00−2зсз22615 0.0 100733
06:00−2зсз22735 0.0 100933
09:00+5сз410345 0.0 10072013
12:00+8зсз61020100 0.0 10053282
15:00+9зсз61122100 0.0 10043503
18:00+9сз6921100 0.0 10042851
21:00+4сз22314 0.0 100619
19 мая, ср
ср1900:000з11390 0.0 100810
03:00−1з114662 0.0 100710
06:000з1146100 0.0 100610
09:00+6ююз1238100 0.0 1004375
12:00+8ююз3444100 0.0 10021329
15:00+9ююз445482 0.0 10001223
18:00+10юз455419 0.1 9981240
21:00+7зюз37625 0.1 1000183
20 мая, чт
чт2000:00+3зсз22855 0.0 100332
03:00+2сз22727 0.0 100420
06:00+1сз11539 0.0 100517
09:00+8вюв222899 0.0 1003602
12:00+13юв3525100 0.0 10011504
15:00+15ю3737100 0.1 9981968
18:00+16юв2548100 0.0 996582
21:00+10ссв2287100 0.6 99724